Location: Arrien
(42.8963°N, 1.0429°E)
Time: 14:23:02
(UTC+00:00)

BlueWalker 3 - Pass Details

Date: 24 February 2026
Orbit: 451 x 458 km, 53.2° (Epoch: 6 March)

Event Time Altitude Azimuth Distance (km) Brightness Sun altitude
Exits shadow 05:13:36 - 198° (SSW) 1,682 4.4 -16.6°
Reaches altitude 10° 05:13:51 10° 196° (SSW) 1,591 4.3 -16.5°
Maximum altitude 05:17:01 30° 134° (SE) 843 3.5 -15.9°
Drops below altitude 10° 05:20:12 10° 72° (ENE) 1,597 5.7 -15.3°
Sets 05:22:30 0° 61° (ENE) 2,473 6.6 -14.9°
